Houston Hull, TX

1:33 PM CDT on September 23, 2017 (GMT -0500)
Sugar Land Municipal-Hull

Weather History for KSGR - January, 2015

Change the Weather History Date:

Wednesday, January 7, 2015

  Actual Average Record
Temperature  
Mean Temperature 50 °F -  
Max Temperature 59 °F 61 °F 84 °F (1989)
Min Temperature 39 °F 41 °F 19 °F (1970)
Degree Days  
Heating Degree Days 14    
Moisture  
Dew Point 39 °F    
Average Humidity 67    
Maximum Humidity 96    
Minimum Humidity 48    
Precipitation  
Precipitation 0.00 in - - ()
Sea Level Pressure  
Sea Level Pressure 30.48 in    
Wind  
Wind Speed 8 mph (North)    
Max Wind Speed 23 mph    
Max Gust Speed 31 mph    
Visibility 10 miles    
Events      
Averages and records for this station are not official NWS values.
T = Trace of Precipitation, MM = Missing Value Source: NWS Daily Summary

Daily Weather History Graph

Daily Weather History Graph

Search for Another Location

Airport or City:

Trip Planner

Search our weather history database for the weather conditions in past years. The results will help you decide how hot, cold, wet, or windy it might be!

Date:

Astronomy

Jan. 07, 2015 Rise Set
Actual Time 7:18 AM CST 5:39 PM CST
Civil Twilight 6:52 AM CST 6:05 PM CST
Nautical Twilight 6:23 AM CST 6:34 PM CST
Astronomical Twilight 5:54 AM CST 7:03 PM CST
Moon 8:11 PM CST (1/7) 8:44 AM CST (1/7)
Length of Visible Light 11h 12m
Length of Day
10h 20m
Waning Gibbous, 94% of the Moon is Illuminated
Jan 7
Waning Gibbous
Jan 13
Last Quarter
Jan 20
New
Jan 26
First Quarter
Feb 3
Full

Hourly Weather History & Observations

Time (CST) Temp. Windchill Dew Point Humidity Pressure Visibility Wind Dir Wind Speed Gust Speed Precip Events Conditions
12:53 AM 42.1 °F - 41.0 °F 96% 30.35 in 8.0 mi Calm Calm - N/A   Clear
1:53 AM 45.0 °F 41.8 °F 42.1 °F 90% 30.34 in 9.0 mi South 5.8 mph - N/A   Clear
2:53 AM 50.0 °F - 46.9 °F 89% 30.34 in 10.0 mi Calm Calm - N/A   Clear
3:53 AM 48.0 °F - 46.0 °F 93% 30.35 in 9.0 mi North 6.9 mph - N/A   Mostly Cloudy
4:53 AM 48.9 °F - 46.0 °F 90% 30.35 in 8.0 mi North 5.8 mph - N/A   Overcast
5:53 AM 50.0 °F - 46.9 °F 89% 30.36 in 9.0 mi Calm Calm - N/A   Overcast
6:53 AM 50.0 °F - 46.9 °F 89% 30.37 in 10.0 mi North 3.5 mph - N/A   Overcast
7:53 AM 51.1 °F - 46.9 °F 86% 30.40 in 10.0 mi North 3.5 mph - N/A   Overcast
8:53 AM 53.1 °F - 46.0 °F 77% 30.43 in 10.0 mi North 4.6 mph - N/A   Overcast
9:53 AM 55.0 °F - 44.1 °F 67% 30.46 in 10.0 mi North 9.2 mph - N/A   Overcast
10:53 AM 55.9 °F - 43.0 °F 62% 30.46 in 10.0 mi NNW 6.9 mph - N/A   Overcast
11:53 AM 57.0 °F - 43.0 °F 59% 30.45 in 10.0 mi North 12.7 mph - N/A   Overcast
12:53 PM 59.0 °F - 42.1 °F 53% 30.45 in 10.0 mi North 15.0 mph - N/A   Overcast
1:53 PM 57.9 °F - 39.9 °F 51% 30.45 in 10.0 mi North 21.9 mph 28.8 mph N/A   Overcast
2:53 PM 57.9 °F - 41.0 °F 53% 30.49 in 10.0 mi North 13.8 mph - N/A   Overcast
3:53 PM 57.9 °F - 39.9 °F 51% 30.52 in 10.0 mi NNE 18.4 mph - N/A   Overcast
4:53 PM 55.0 °F - 36.0 °F 49% 30.55 in 10.0 mi NNE 18.4 mph 28.8 mph N/A   Scattered Clouds
5:53 PM 53.1 °F - 34.0 °F 48% 30.58 in 10.0 mi NNE 20.7 mph - N/A   Mostly Cloudy
6:53 PM 51.1 °F - 32.0 °F 48% 30.61 in 10.0 mi NNE 15.0 mph - N/A   Clear
7:53 PM 50.0 °F - 32.0 °F 50% 30.63 in 10.0 mi NNE 21.9 mph 27.6 mph N/A   Clear
8:53 PM 46.9 °F - 30.0 °F 52% 30.66 in 10.0 mi NNE 23.0 mph 31.1 mph N/A   Clear
9:53 PM 45.0 °F 36.6 °F 28.0 °F 52% 30.67 in 10.0 mi NE 21.9 mph 28.8 mph N/A   Clear
10:53 PM 42.1 °F 34.5 °F 26.1 °F 53% 30.67 in 10.0 mi North 15.0 mph - N/A   Clear
11:53 PM 39.9 °F 32.1 °F 25.0 °F 55% 30.67 in 10.0 mi North 13.8 mph - N/A   Clear